Location: ?????
(54.9266°N, 38.5527°E)
Time: 18:23:22
(UTC+00:00)

deb REX - Pass Details

Date: 25 September 2024
Orbit: 705 x 731 km, 89.8° (Epoch: 08 October)

Event Time Altitude Azimuth Distance (km) Brightness Sun altitude
Rises 16:28:07 0° 222° (SW) 3,138 ? -11.1°
Reaches altitude 10° 16:31:00 10° 239° (WSW) 2,216 ? -11.5°
Maximum altitude 16:34:35 20° 286° (WNW) 1,635 ? -12.0°
Drops below altitude 10° 16:38:07 10° 333° (NNW) 2,192 ? -12.5°
Sets 16:41:04 0° 351° (N) 3,132 ? -12.9°
